THORAD AGENA D DEB, 4644

Orbit data source: Space-Track

THORAD AGENA D DEB, 4644 is space debris in SSO originally from a launch on Wed, 08 Apr 1970 UTC launched from the Air Force Western Test Range (AFWTR). Debris objects in space refer to the collection of defunct objects orbiting the Earth. Examples of debris include non-operational satellites, rocket bodies, and fragments generated from explosions, collisions, or faulty payload assembly.

Loading next visibility...
Identifier
4644, 1970-025AC
Orbit
SSO
Country
Flag of USUS
Related business
Manufacturer
Unknown
Mission
Spacecraft
Bus & Motor
Unknown
Mass
Unknown
Launch date (UTC)
1970-04-08 (56 years ago)
Launch vehicle
Unknown
Launch site
Air Force Western Test Range (AFWTR)
Object type
Payload
Rocket body
Debris
Shape & HBR
Unknown shape, 0.1 m
Radar Cross Section
Medium (>0.1 m² and <1 m²)

Expand to show TLE details & history
Last TLE update: 8 hours ago

TLE from 8 hours ago
0 THORAD AGENA D DEB
1  4644U 70025AC  26035.48539582  .00000271  00000-0  41879-3 0  9994
2  4644  99.5695 292.2734 0011700 268.0742 265.2077 13.60416739759134
Epoch: 2026-02-04T11:38Z
TLE epoch observation values (Epoch: 2026-02-04T11:38:58.198Z)
Latitude
6.68361°
Longitude
164.00577°
Altitude
1,037.099 km
Speed
7.333 km/s
True Right ascension
07h 33m 35s
True Declination
6° 38' 44"
Sunlit
Object was in full shadow at epoch
Visualization orbit readout
Latitude
Unknown
Longitude
Unknown
Altitude
Unknown
Speed
Unknown
Apparent Right ascension
Unknown
Apparent Declination
Unknown
Sunlit
N/A
Visualization observer readout
Local Sidereal Time
21:22:59
Azimuth
Unknown
Elevation
Unknown
Doppler factor
Unknown
Orbital elements
Apogee altitude
1,040.128 km
Perigee altitude
1,022.789 km
Semi-major axis
7,409.596 km
Eccentricity
0.00117
Inclination
99.5695°
RAAN
292.2734°
Arg. of periapsis
268.0742°
True anomaly
265.07411°
Mean anomaly
265.2077°
Eccentric anomaly
265.1409°
Mean motion
3.40292 °/min
Orbital period
105.79 mins
BSTAR
0.00041879
Loading maneuver chart data...
Computing Atmospheric mass density...

Documentation

Showing up to 5 results
|